EW7893 Weather Reports


Display with metric or nautical units.
time (UTC)temp
F
wind
direction
speed
MPH
gust
MPH
rain 1hr
in
rain 24hr
in
rain mn
in
humidity
%
barometer
mb
20260506233059 66 231 0.0 4.0 0.00 0.03 0.03 74 1007.5
20260506231529 67 98 0.0 5.0 0.00 0.03 0.03 74 1007.3
20260506230039 66 201 1.0 4.0 0.00 0.03 0.03 74 1007.5
20260506224540 66 210 2.0 11.0 0.00 0.03 0.03 74 1007.5
20260506223059 66 244 2.0 6.0 0.00 0.03 0.03 74 1007.3
20260506221518 66 214 2.0 8.0 0.00 0.03 0.03 74 1007.2
20260506220309 67 191 2.0 6.0 0.00 0.03 0.03 74 1007.3
20260506220027 66 243 1.0 5.0 0.00 0.03 0.03 74 1007.2
20260506214537 66 220 3.0 8.0 0.00 0.03 0.03 74 1007.1
20260506213102 66 252 4.0 9.0 0.00 0.03 0.03 74 1007.0
20260506211557 66 145 1.0 8.0 0.00 0.03 0.03 75 1006.9
20260506204519 66 160 2.0 8.0 0.00 0.03 0.03 77 1006.6
20260506203032 65 237 2.0 9.0 0.00 0.03 0.03 77 1006.6
20260506201600 64 134 2.0 10.0 0.00 0.03 0.03 78 1006.8
20260506200311 65 221 5.0 13.0 0.00 0.03 0.03 79 1007.1
20260506194516 64 203 0.0 4.0 0.00 0.03 0.03 81 1007.2
20260506193017 64 234 0.0 5.0 0.00 0.03 0.03 82 1007.3
20260506191544 64 184 2.0 6.0 0.00 0.03 0.03 80 1007.6
20260506190055 64 212 2.0 11.0 0.00 0.03 0.03 80 1007.5
20260506184609 65 173 3.0 13.0 0.00 0.03 0.03 75 1007.7
20260506183005 67 253 10.0 17.0 0.00 0.03 0.03 68 1007.5
20260506181512 67 153 2.0 7.0 0.00 0.03 0.03 72 1007.6
20260506180318 67 225 3.0 10.0 0.01 0.03 0.03 72 1008.0
20260506180021 67 191 1.0 7.0 0.01 0.03 0.03 73 1007.8
20260506174544 67 111 2.0 6.0 0.02 0.03 0.03 73 1007.6
20260506173108 66 208 2.0 8.0 0.02 0.03 0.03 75 1007.7
20260506171525 65 165 0.0 6.0 0.03 0.03 0.03 77 1007.9
20260506170034 65 207 1.0 7.0 0.02 0.02 0.02 76 1008.7
20260506164539 65 133 1.0 11.0 0.01 0.01 0.01 75 1009.0
20260506163110 66 207 3.0 12.0 0.01 0.01 0.01 73 1009.0
20260506161503 68 200 2.0 11.0 0.00 0.00 0.00 68 1009.1
20260506160312 70 217 5.0 14.0 0.00 0.00 0.00 62 1009.4
20260506160100 70 243 3.0 14.0 0.00 0.00 0.00 62 1009.3
20260506154521 71 221 7.0 19.0 0.00 0.00 0.00 59 1009.5
20260506153030 70 175 3.0 14.0 0.00 0.00 0.00 61 1009.2
20260506151543 70 231 4.0 13.0 0.00 0.00 0.00 61 1009.4
20260506150043 71 179 6.0 18.0 0.00 0.00 0.00 60 1009.4
20260506144603 72 210 4.0 16.0 0.00 0.00 0.00 60 1009.5
20260506143025 71 258 4.0 11.0 0.00 0.00 0.00 61 1009.4
20260506141519 70 241 4.0 14.0 0.00 0.00 0.00 62 1009.3
20260506140310 71 181 6.0 14.0 0.00 0.00 0.00 61 1009.5
20260506140023 70 316 4.0 14.0 0.00 0.00 0.00 62 1009.4
20260506134540 70 204 5.0 13.0 0.00 0.00 0.00 63 1009.4
20260506133051 69 235 5.0 15.0 0.00 0.00 0.00 64 1009.6
20260506131511 69 165 7.0 15.0 0.00 0.00 0.00 64 1009.7
20260506130012 69 1 2.0 11.0 0.00 0.00 0.00 65 1009.5
20260506124526 68 221 4.0 12.0 0.00 0.00 0.00 66 1009.5
20260506123045 66 161 2.0 9.0 0.00 0.00 0.00 68 1009.6
20260506121559 66 125 3.0 10.0 0.00 0.00 0.00 68 1009.7
20260506120323 67 91 3.0 8.0 0.00 0.00 0.00 68 1009.8
20260506120044 67 110 4.0 8.0 0.00 0.00 0.00 68 1009.8
20260506114552 66 211 4.0 12.0 0.00 0.00 0.00 69 1009.8
20260506113057 65 111 5.0 10.0 0.00 0.00 0.00 71 1010.0
20260506111517 64 90 2.0 8.0 0.00 0.00 0.00 72 1010.0
20260506110028 64 185 2.0 9.0 0.00 0.00 0.00 73 1009.8
20260506104559 63 156 3.0 12.0 0.00 0.00 0.00 73 1009.7
20260506103010 63 155 3.0 13.0 0.00 0.00 0.00 74 1009.7
20260506101515 63 105 2.0 9.0 0.00 0.00 0.00 74 1009.6
20260506100300 63 191 3.0 8.0 0.00 0.00 0.00 75 1009.6
20260506100015 63 165 2.0 8.0 0.00 0.00 0.00 75 1009.6
20260506094527 63 232 3.0 11.0 0.00 0.00 0.00 74 1009.4
20260506093042 63 155 5.0 11.0 0.00 0.00 0.00 74 1009.5
20260506091548 63 167 3.0 9.0 0.00 0.00 0.00 74 1009.5
20260506090056 63 134 2.0 9.0 0.00 0.00 0.00 74 1009.6
20260506084511 63 193 2.0 10.0 0.00 0.00 0.00 74 1009.7
20260506083025 64 243 3.0 11.0 0.00 0.00 0.00 74 1009.7
20260506081524 64 209 3.0 8.0 0.00 0.00 0.00 74 1010.0
20260506080309 64 195 2.0 9.0 0.00 0.00 0.00 74 1009.9
20260506073058 64 172 3.0 9.0 0.00 0.00 0.00 73 1009.9
20260506071511 65 100 2.0 10.0 0.00 0.00 0.00 72 1010.0
20260506061545 66 203 2.0 8.0 0.00 0.00 0.00 69 1009.9
20260506060318 67 216 3.0 13.0 0.00 0.00 0.00 68 1010.0
20260506044529 67 247 3.0 11.0 0.00 0.00 0.00 66 1010.5
20260506043040 67 204 2.0 11.0 0.00 0.00 0.00 65 1010.5
20260506041607 67 161 3.0 11.0 0.00 0.00 0.00 64 1010.4
20260506040309 68 191 5.0 10.0 0.00 0.00 0.00 63 1010.5
20260506040020 68 284 2.0 10.0 0.00 0.00 0.00 63 1010.4
20260506034532 68 148 3.0 13.0 0.00 0.00 0.00 62 1010.5
20260506033030 69 202 3.0 12.0 0.00 0.00 0.00 60 1010.5
20260506031536 69 218 5.0 15.0 0.00 0.00 0.00 59 1010.3
20260506030050 69 231 3.0 14.0 0.00 0.00 0.00 58 1010.3
20260506024600 69 154 5.0 12.0 0.00 0.00 0.00 58 1010.3
20260506023019 69 195 4.0 11.0 0.00 0.00 0.00 57 1010.4
20260506021532 69 108 4.0 12.0 0.00 0.00 0.00 57 1010.3
20260506020309 70 113 5.0 12.0 0.00 0.00 0.00 57 1010.3
20260506020039 70 161 4.0 14.0 0.00 0.00 0.00 57 1010.2
20260506014541 70 169 5.0 16.0 0.00 0.00 0.00 56 1010.2
20260506013106 71 178 2.0 11.0 0.00 0.00 0.00 56 1010.0
20260506011510 71 234 3.0 11.0 0.00 0.00 0.00 54 1009.9
20260506010015 72 229 5.0 11.0 0.00 0.00 0.00 53 1009.7
20260506004523 73 103 6.0 14.0 0.00 0.00 0.00 50 1009.5
20260506003055 76 160 5.0 14.0 0.00 0.00 0.00 41 1009.2
20260506001502 77 174 3.0 12.0 0.00 0.00 0.00 40 1009.0
20260506000315 78 210 5.0 15.0 0.00 0.00 0.00 40 1009.0
20260506000058 77 236 3.0 19.0 0.00 0.00 0.00 40 1008.9
20260505234519 78 120 5.0 13.0 0.00 0.00 0.00 38 1008.8